Location: Stavanger
(58.9670°N, 5.7500°E)
Time: 01:09:02
(UTC+01:00)

ISS - Visible Passes

Search period start: 23 March 2019 00:00
Search period end: 02 April 2019 01:00
Orbit: 406 x 411 km, 51.6° (Epoch: 23 March)

Date Brightness Start Highest point End Pass type
(mag) Time Alt. Az. Time Alt. Az. Time Alt. Az.
23 Mar -1.4 20:25:07 10° SSE 20:25:12 10° SSE 20:25:12 10° SSE visible
24 Mar -1.7 21:08:19 10° SSW 21:09:25 15° SSW 21:09:25 15° SSW visible
25 Mar -1.9 20:17:48 10° SSW 20:19:49 15° SSE 20:20:42 14° SE visible
25 Mar -1.2 21:52:58 10° SW 21:53:27 13° SW 21:53:27 13° SW visible
26 Mar -2.3 21:02:07 10° SW 21:04:36 22° S 21:04:36 22° S visible
27 Mar -2.1 20:11:21 10° SW 20:13:50 20° SSE 20:15:40 13° SE visible
27 Mar -1.7 21:47:04 10° WSW 21:48:25 18° SW 21:48:25 18° SW visible
28 Mar -2.4 20:56:06 10° SW 20:58:47 23° S 20:59:24 22° SSE visible
29 Mar -2.2 20:05:11 10° SW 20:07:51 23° S 20:10:20 11° ESE visible
29 Mar -1.8 21:41:17 10° WSW 21:43:04 18° SSW 21:43:04 18° SSW visible
30 Mar -2.1 20:50:11 10° WSW 20:52:47 21° S 20:53:57 18° SSE visible
31 Mar -2.2 20:59:09 10° WSW 21:01:49 23° S 21:04:30 10° SE visible
31 Mar -1.6 22:35:42 10° WSW 22:37:33 15° SSW 22:37:33 15° SSW visible
01 Apr -1.8 21:44:23 10° WSW 21:46:42 18° SSW 21:48:25 13° SSE visible
